Regional Weather Roundup
Issued by NWS Little Rock, AR

Home | Current Version | Previous Version | Graphics & Text | Print | Product List | Glossary On
Versions: 1 2 3 4 5 6 7 8 9 10 11 12 13 14 15 16 17 18 19 20 21 22 23 24 25 26 27 28 29 30 31 32 33 34 35 36 37 38 39 40 41 42 43 44 45 46 47 48 49 50
000
ASUS44 KLZK 062205
RWRLZK

WEATHER ROUNDUP FOR ARKANSAS
NATIONAL WEATHER SERVICE LITTLE ROCK AR
500 PM CDT WED MAY 06 2015

NOTE: "FAIR" INDICATES FEW OR NO CLOUDS BELOW 12,000 FEET WITH NO
SIGNIFICANT WEATHER AND/OR OBSTRUCTIONS TO VISIBILITY.

ARZ001-003-010-029-062300-
NORTHWEST ARKANSAS

CITY           SKY/WX    TMP DP  RH WIND       PRES   REMARKS
FAYETTEVILLE   PTSUNNY   76  68  76 S17       29.98F
FORT SMITH     MOSUNNY   80  54  40 SE9G18    29.94F
HARRISON       PTSUNNY   77  56  48 S17       30.01F
BENTONVILLE    SUNNY     77  54  44 S14G24    29.98F
ROGERS         MOSUNNY   77  56  48 S13G28    29.99S
SILOAM SPGS    MOSUNNY   75  55  50 S14       29.97F
HIGHFILL       SUNNY     78  56  46 S21G28    29.97S
SPRINGDALE     MOSUNNY   75  55  50 S14G25    30.00F
$$

ARZ004-005-016-062300-
NORTH CENTRAL ARKANSAS

CITY           SKY/WX    TMP DP  RH WIND       PRES   REMARKS
BATESVILLE     MOSUNNY   81  55  41 S7        30.02F
FLIPPIN        PTSUNNY   79  55  44 S7        29.99F
MTN HOME       PTSUNNY   77  55  46 S9G17     30.01F
$$

ARZ040-041-062300-
WEST CENTRAL ARKANSAS

CITY           SKY/WX    TMP DP  RH WIND       PRES   REMARKS
MENA           MOSUNNY   79  57  47 SE5       29.99F
MOUNT IDA      PTSUNNY   79  57  46 VRB5      29.97F
$$

ARZ009-017-025-026-028-062300-
NORTHEAST ARKANSAS

CITY           SKY/WX    TMP DP  RH WIND       PRES   REMARKS
CORNING          N/A     84  50  30 SE17      30.04S
JONESBORO      MOSUNNY   82  50  32 S12       30.03F
NEWPORT        CLOUDY    86  53  32 S12       30.03F
WALNUT RIDGE   MOSUNNY   82  52  34 SE13      30.02F
BLYTHEVILLE    MOSUNNY   84  50  30 S12G21    30.05F
$$

ARZ022-023-033-042-044-062300-
CENTRAL ARKANSAS

CITY           SKY/WX    TMP DP  RH WIND       PRES   REMARKS
LITTLE ROCK    PTSUNNY   83  54  36 S13       30.00F
N LITTLE ROCK  PTSUNNY   83  59  45 SE13G18   30.00F
JACKSONVILLE   PTSUNNY   83  58  43 VRB7      30.00F
SEARCY         MOSUNNY   82  56  40 S10       30.03F
HOT SPRINGS    MOSUNNY   80  59  48 SE10      29.99F
RUSSELLVILLE   MOSUNNY   80  58  46 SE6       29.98F
CLINTON        FAIR      81  59  47 SE9G16    30.02F
$$

ARZ036-062300-
EAST ARKANSAS

CITY           SKY/WX    TMP DP  RH WIND       PRES   REMARKS
WEST MEMPHIS   SUNNY     82  53  36 S9        30.04F
$$

ARZ050-053-066-070-073-062300-
SOUTHWEST ARKANSAS

CITY           SKY/WX    TMP DP  RH WIND       PRES   REMARKS
ARKADELPHIA    FAIR      83  62  48 VRB7      29.99F
CAMDEN         MOSUNNY   84  57  39 NE12G17   29.99F
TEXARKANA      MOSUNNY   81  63  54 SE9       29.97F
EL DORADO      MOSUNNY   83  59  44 E12       29.99F
DE QUEEN       PTSUNNY   78  61  55 VRB7      29.95F
$$

ARZ056-057-069-062300-
SOUTHEAST ARKANSAS

CITY           SKY/WX    TMP DP  RH WIND       PRES   REMARKS
PINE BLUFF     SUNNY     83  57  41 SE12      30.00F
STUTTGART      MOSUNNY   84  55  37 S16       30.02F
MONTICELLO     SUNNY     83  54  36 SE13      30.01F

$$





USA.gov is the U.S. government's official web portal to all federal, state and local government web resources and services.